Skip Page Navigation
NASA JPL Caltech
NASA Logo - Jet Propulsion Laboratory + View the NASA Portal
+ Near-Earth Object (NEO) Program
Search JPL
JPL Home Earth Solar System Stars & Galaxies Technology
JPL Solar System Dynamics
BODIES ORBITS EPHEMERIDES TOOLS PHYSICAL DATA DISCOVERY FAQ SITE MAP
JPL Small-Body Database Browser
Search: [ help ]  
19235 van Schurman (1993 VS4)
Classification: Main-belt Asteroid          SPK-ID: 2019235
Ephemeris | Orbit Diagram | Orbital Elements | Physical Parameters | Discovery Circumstances ]

[ show orbit diagram ]
Orbital Elements at Epoch 2456400.5 (2013-Apr-18.0) TDB
Reference: MPO250403 (heliocentric ecliptic J2000)
 Element Value Uncertainty (1-sigma)   Units 
e 0.1481278 n/a  
a 2.4667539 n/a AU
q 2.1013591 n/a AU
i 11.02774 n/a deg
node 74.46657 n/a deg
peri 294.40292 n/a deg
M 46.11720 n/a deg
tp 2456219.2209570
(2012-Oct-18.72095700)
n/a JED
period 1415.1001246
3.87
n/a
n/a
d
yr
n 0.25439896 n/a deg/d
Q 2.8321487 n/a AU
  Orbit Determination Parameters
   # obs. used (total)      804  
   first obs. used      1977-??-??  
   last obs. used      2013-01-07  
   # oppositions      15  
   planetary ephem.      DE403  
   condition code      0  
   fit RMS      0.53  
   data source      MPC:mpn  
   producer      MPCLINUX  

Additional Information
 T_jup = 3.446 

Ephemeris | Orbit Diagram | Orbital Elements | Physical Parameters | Discovery Circumstances ]

Physical Parameter Table
Parameter Symbol Value Units Sigma Reference Notes
absolute magnitude H 13.7 mag n/a PDS3 (MPO 6488)  

19235 van Schurman           Discovered 1993 Nov. 9 by E. W. Elst at Caussols.
Anna Maria van Schurman (1607-1678) was the first female student at the University of Utrecht, although she was obliged to follow the courses from behind a curtain. Excelling in many disciplines, she was one of the most intellectual women in Europe. A true polyglot, she corresponded actively with scholars around the world.
NOTE: some special characters may not display properly (any characters within {} are an attempt to place the proper accent above a character)
Reference: 20090409/MPCPages.arcLast Updated: 2009-04-10

Alternate Designations
 1993 VS4 = 1989 VX3 = 1989 WN5 = 1998 BT7 
Ephemeris | Orbit Diagram | Orbital Elements | Physical Parameters | Discovery Circumstances ]
ABOUT SSD CREDITS/AWARDS PRIVACY/COPYRIGHT GLOSSARY LINKS
FirstGov 2013-May-20 03:44 UT
(server date/time)  
NASA Home Page
Site Manager:   Donald K. Yeomans
Webmaster  Alan B. Chamberlin